User: anonymous   Login
Location: Puketoi
(40.5833°S, 176.0167°E)
Time: 15:52:06
(UTC+00:00)
Language:

SL-4 R/B - Orbit

View from above orbital plane
View from above orbital plane
View from above satellite
View from above satellite

Ground track
Ground track

The orbit data is extracted from the following two-line orbital elements,

1 39679U 14021B   24106.27180308  .00008623  00000-0  33464-3 0  9996
2 39679  51.6095  66.6065 0140624 135.0324 226.2141 15.18223400550527
Epoch (UTC): 15 April 2024 06:31:23
Eccentricity: 0.0140624
inclination: 51.6095°
perigee height: 414 km
apogee height: 608 km
right ascension of ascending node: 66.6065°
argument of perigee: 135.0324°
revolutions per day: 15.18223400
mean anomaly at epoch: 226.2141°
orbit number at epoch: 55052

The dashed part of the orbit path shows where the satellite is in the earth's shadow,  

DLR